Hazen, ND

9:34 AM CDT on August 24, 2016 (GMT -0500)
Mercer County Regional

Weather History for KHZE - March, 2013

Change the Weather History Date:

Tuesday, March 5, 2013

  Actual Average (KN60) Record (KN60)
Temperature  
Mean Temperature 14 °F -  
Max Temperature 19 °F - 61 °F (2016)
Min Temperature 8 °F - -18 °F (2003)
Degree Days  
Heating Degree Days 52    
Cooling Degree Days 0    
Moisture  
Dew Point 9 °F    
Average Humidity 78    
Maximum Humidity 92    
Minimum Humidity 68    
Precipitation  
Precipitation 0.23 in - 0.12 in (2002)
Month to date precipitation  
Year to date precipitation  
Sea Level Pressure  
Sea Level Pressure 30.35 in    
Wind  
Wind Speed 12 mph (NNW)    
Max Wind Speed 20 mph    
Max Gust Speed 25 mph    
Visibility 9 miles    
Events Snow    
T = Trace of Precipitation, MM = Missing Value Source: NWS Daily Summary

Daily Weather History Graph

Daily Weather History Graph

Search for Another Location

Airport or City:

Trip Planner

Search our weather history database for the weather conditions in past years. The results will help you decide how hot, cold, wet, or windy it might be!

Date:

Astronomy

Mar. 05, 2013 Rise Set
Actual Time 7:18 AM CST 6:37 PM CST
Civil Twilight 6:47 AM CST 7:08 PM CST
Nautical Twilight 6:12 AM CST 7:43 PM CST
Astronomical Twilight 5:36 AM CST 8:19 PM CST
Moon 2:50 AM CST (3/5) 12:00 PM CST (3/5)
Length of Visible Light 12h 20m
Length of Day
11h 19m
Last Quarter, 40% of the Moon is Illuminated
Mar 5
Last Quarter
Mar 11
New
Mar 19
First Quarter
Mar 27
Full
Apr 2
Last Quarter

Hourly Weather History & Observations

Time (CST) Temp. Windchill Dew Point Humidity Pressure Visibility Wind Dir Wind Speed Gust Speed Precip Events Conditions
12:15 AM 17.6 °F 2.2 °F 12.2 °F 79% 30.19 in 10.0 mi NNW 17.3 mph 24.2 mph N/A   Overcast
12:35 AM 17.6 °F 2.2 °F 12.2 °F 79% 30.20 in 10.0 mi NNW 17.3 mph - N/A   Overcast
12:55 AM 17.6 °F 1.7 °F 12.2 °F 79% 30.21 in 10.0 mi NNW 18.4 mph 23.0 mph N/A Snow Light Snow
1:15 AM 17.6 °F 1.7 °F 12.2 °F 79% 30.21 in 10.0 mi NNW 18.4 mph 24.2 mph N/A Snow Light Snow
1:35 AM 17.6 °F 2.2 °F 12.2 °F 79% 30.23 in 10.0 mi NNW 17.3 mph 25.3 mph N/A Snow Light Snow
1:55 AM 15.8 °F -1.1 °F 10.4 °F 79% 30.24 in 10.0 mi NNW 19.6 mph 23.0 mph N/A   Overcast
2:15 AM 15.8 °F 2.1 °F 10.4 °F 79% 30.26 in 10.0 mi NW 12.7 mph - N/A   Overcast
2:35 AM 14.0 °F 1.2 °F 8.6 °F 79% 30.26 in 10.0 mi NW 10.4 mph - N/A Snow Light Snow
2:55 AM 14.0 °F 1.2 °F 8.6 °F 79% 30.27 in 10.0 mi NW 10.4 mph - N/A   Mostly Cloudy
3:15 AM 12.2 °F -1.8 °F 6.8 °F 79% 30.28 in 10.0 mi WNW 11.5 mph - N/A   Mostly Cloudy
3:35 AM 12.2 °F -3.7 °F 6.8 °F 79% 30.29 in 10.0 mi NNW 15.0 mph 19.6 mph N/A Snow Light Snow
3:55 AM 12.2 °F -3.7 °F 6.8 °F 79% 30.30 in 10.0 mi NNW 15.0 mph 23.0 mph N/A   Overcast
4:15 AM 14.0 °F -3.0 °F 8.6 °F 79% 30.31 in 10.0 mi NNW 18.4 mph 21.9 mph N/A Snow Light Snow
4:35 AM 14.0 °F -2.5 °F 8.6 °F 79% 30.31 in 8.0 mi NNW 17.3 mph - N/A Snow Light Snow
4:55 AM 14.0 °F -2.5 °F 8.6 °F 79% 30.32 in 6.0 mi North 17.3 mph 24.2 mph 0.02 in Snow Light Snow
5:15 AM 14.0 °F -1.4 °F 10.4 °F 86% 30.32 in 9.0 mi NNW 15.0 mph 19.6 mph 0.01 in Snow Light Snow
5:35 AM 14.0 °F -0.8 °F 10.4 °F 86% 30.33 in 10.0 mi NW 13.8 mph - 0.01 in Snow Light Snow
5:55 AM 14.0 °F -2.0 °F 8.6 °F 79% 30.33 in 10.0 mi NW 16.1 mph - 0.02 in Snow Light Snow
6:15 AM 14.0 °F -0.8 °F 8.6 °F 79% 30.34 in 9.0 mi NNW 13.8 mph - N/A Snow Light Snow
6:35 AM 14.0 °F -0.2 °F 8.6 °F 79% 30.35 in 9.0 mi NW 12.7 mph 17.3 mph 0.01 in Snow Light Snow
7:35 AM 12.2 °F -3.7 °F 6.8 °F 79% 30.36 in 8.0 mi NNW 15.0 mph - N/A Snow Light Snow
7:55 AM 12.2 °F -3.1 °F 6.8 °F 79% 30.37 in 10.0 mi NNW 13.8 mph - 0.01 in Snow Light Snow
8:15 AM 12.2 °F -4.8 °F 6.8 °F 79% 30.38 in 9.0 mi NW 17.3 mph - N/A Snow Light Snow
8:35 AM 12.2 °F -2.5 °F 6.8 °F 79% 30.38 in 5.0 mi NW 12.7 mph 17.3 mph 0.02 in Snow Light Snow
8:55 AM 12.2 °F -3.1 °F 6.8 °F 79% 30.38 in 9.0 mi NW 13.8 mph - 0.05 in Snow Light Snow
9:15 AM 12.2 °F -1.0 °F 6.8 °F 79% 30.40 in 10.0 mi WNW 10.4 mph - N/A Snow Light Snow
9:35 AM 12.2 °F -1.8 °F 6.8 °F 79% 30.40 in 10.0 mi NW 11.5 mph - N/A Snow Light Snow
9:55 AM 14.0 °F 0.5 °F 6.8 °F 73% 30.40 in 5.0 mi WNW 11.5 mph - 0.02 in Snow Light Snow
10:15 AM 14.0 °F -0.2 °F 8.6 °F 79% 30.40 in 7.0 mi WNW 12.7 mph - 0.01 in Snow Light Snow
10:35 AM 15.8 °F 2.1 °F 8.6 °F 73% 30.40 in 9.0 mi NW 12.7 mph - 0.02 in Snow Light Snow
10:55 AM 15.8 °F 2.1 °F 8.6 °F 73% 30.40 in 10.0 mi NW 12.7 mph 18.4 mph 0.03 in Snow Light Snow
11:15 AM 15.8 °F 2.7 °F 10.4 °F 79% 30.41 in 10.0 mi NW 11.5 mph - N/A Snow Light Snow
11:35 AM 15.8 °F 2.7 °F 10.4 °F 79% 30.41 in 6.0 mi NNW 11.5 mph - 0.01 in Snow Light Snow
11:55 AM 15.8 °F 2.7 °F 10.4 °F 79% 30.41 in 3.0 mi NW 11.5 mph - 0.03 in Snow Light Snow
12:15 PM 17.6 °F 5.7 °F 10.4 °F 73% 30.40 in 5.0 mi NNW 10.4 mph - 0.01 in Snow Light Snow
12:35 PM 15.8 °F 3.4 °F 8.6 °F 73% 30.41 in 7.0 mi NNW 10.4 mph - 0.02 in Snow Light Snow
12:55 PM 17.6 °F 6.4 °F 8.6 °F 68% 30.41 in 9.0 mi NNW 9.2 mph - 0.03 in Snow Light Snow
1:15 PM 17.6 °F 6.4 °F 10.4 °F 73% 30.41 in 9.0 mi NNW 9.2 mph - N/A Snow Light Snow
1:35 PM 17.6 °F 7.3 °F 10.4 °F 73% 30.41 in 9.0 mi NNW 8.1 mph - 0.01 in Snow Light Snow
1:55 PM 17.6 °F 5.0 °F 10.4 °F 73% 30.40 in 10.0 mi NW 11.5 mph - 0.01 in Snow Light Snow
2:15 PM 17.6 °F 7.3 °F 10.4 °F 73% 30.40 in 10.0 mi North 8.1 mph - N/A   Partly Cloudy
2:35 PM 17.6 °F 6.4 °F 10.4 °F 73% 30.40 in 10.0 mi NNW 9.2 mph - N/A   Partly Cloudy
2:55 PM 19.4 °F 10.4 °F 10.4 °F 68% 30.39 in 10.0 mi North 6.9 mph - N/A   Partly Cloudy
3:15 PM 17.6 °F 9.3 °F 10.4 °F 73% 30.39 in 10.0 mi NNW 5.8 mph - N/A   Scattered Clouds
3:35 PM 19.4 °F 11.5 °F 10.4 °F 68% 30.38 in 10.0 mi North 5.8 mph - N/A   Scattered Clouds
3:55 PM 19.4 °F 12.8 °F 10.4 °F 68% 30.39 in 10.0 mi NNW 4.6 mph - N/A   Mostly Cloudy
4:15 PM 19.4 °F 10.4 °F 10.4 °F 68% 30.38 in 10.0 mi NNE 6.9 mph - N/A   Scattered Clouds
4:35 PM 17.6 °F 10.7 °F 10.4 °F 73% 30.38 in 10.0 mi North 4.6 mph - N/A   Scattered Clouds
4:55 PM 19.4 °F 12.8 °F 10.4 °F 68% 30.38 in 10.0 mi NNE 4.6 mph - N/A   Scattered Clouds
5:15 PM 17.6 °F 12.3 °F 10.4 °F 73% 30.38 in 10.0 mi North 3.5 mph - N/A   Partly Cloudy
5:35 PM 17.6 °F 10.7 °F 10.4 °F 73% 30.37 in 10.0 mi NNE 4.6 mph - N/A   Clear
5:55 PM 17.6 °F 12.3 °F 10.4 °F 73% 30.37 in 10.0 mi NNE 3.5 mph - N/A   Clear
6:15 PM 15.8 °F 8.6 °F 10.4 °F 79% 30.37 in 10.0 mi North 4.6 mph - N/A   Clear
6:35 PM 14.0 °F 8.2 °F 8.6 °F 79% 30.37 in 10.0 mi North 3.5 mph - N/A   Clear
6:55 PM 14.0 °F - 8.6 °F 79% 30.36 in 10.0 mi Calm Calm - N/A   Clear
7:15 PM 10.4 °F - 8.6 °F 92% 30.37 in 10.0 mi Calm Calm - N/A   Clear
7:35 PM 8.6 °F - 6.8 °F 92% 30.37 in 10.0 mi Calm Calm - N/A   Scattered Clouds
7:55 PM 8.6 °F - 5.0 °F 85% 30.37 in 10.0 mi Calm Calm - N/A   Mostly Cloudy
8:15 PM 8.6 °F - 5.0 °F 85% 30.36 in 10.0 mi Calm Calm - N/A   Mostly Cloudy
8:35 PM 8.6 °F - 5.0 °F 85% 30.37 in 10.0 mi Calm Calm - N/A   Overcast
8:55 PM 8.6 °F - 5.0 °F 85% 30.38 in 10.0 mi Calm Calm - N/A   Overcast
9:15 PM 8.6 °F 2.0 °F 5.0 °F 85% 30.37 in 10.0 mi SE 3.5 mph - N/A   Overcast
9:35 PM 8.6 °F - 5.0 °F 85% 30.37 in 10.0 mi Calm Calm - N/A   Overcast
9:55 PM 10.4 °F - 6.8 °F 85% 30.37 in 10.0 mi Calm Calm - N/A Snow Light Snow
10:15 PM 14.0 °F 6.5 °F 10.4 °F 86% 30.38 in 10.0 mi SE 4.6 mph - N/A   Overcast
10:35 PM 14.0 °F - 10.4 °F 86% 30.38 in 10.0 mi Calm Calm - N/A   Overcast
10:55 PM 15.8 °F 8.6 °F 10.4 °F 79% 30.38 in 10.0 mi SE 4.6 mph - N/A   Overcast
11:15 PM 14.0 °F 6.5 °F 10.4 °F 86% 30.37 in 10.0 mi SSE 4.6 mph - N/A   Overcast
11:35 PM 14.0 °F 5.1 °F 10.4 °F 86% 30.37 in 10.0 mi SSE 5.8 mph - N/A   Overcast
11:55 PM 14.0 °F 3.9 °F 10.4 °F 86% 30.37 in 10.0 mi SSE 6.9 mph - N/A   Overcast